Welcome to the New NWS' Forecast!
Most changes are behind the scenes, but click here for differences you might notice.
Latest weather observations around

Boyd Deep Canyon Reserve (UCNRS) (UCDE)

Using English Units (Switch to International System of Units)
Date/ Time (PDT) Wind (mph) Vis. (mi) Weather Sky Cond. Temp (°F) Rel. Humidity Wind Chill (°F) Heat Index (°F) Pressure Precip. (in)
Air Dwpt 6 hour Altimeter (inHg) Sea level (inHg) 1 hr 3 hr 6 hr
Max Min
Aug 15 03:20 NE 1   Clear   82 55     40%   81 29.85        
Aug 15 03:10 N 4   Clear   84 55     37%   83 29.85        
Aug 15 03:00 SW 2   Clear   85 54     35%   83 29.84        
Aug 15 02:50 SW 2   Clear   84 54     36%   83 29.85        
Aug 15 02:40 SSW 2   Clear   84 54     36%   83 29.85        
Aug 15 02:30 S 1   Clear   83 54     36%   82 29.85        
Aug 15 02:20 NE 1   Clear   83 54     36%   82 29.85        
Aug 15 02:10 NE 2   Clear   83 54     37%   82 29.85        
Aug 15 02:00 Calm   Clear   83 54     37%   82 29.85        
Aug 15 01:50 Calm   Clear   83 54     37%   82 29.85        
Aug 15 01:40 Calm   Clear   83 54     37%   82 29.85        
Aug 15 01:30 NE 1   Clear   84 55     37%   82 29.86        
Aug 15 01:20 NNE 2   Clear   84 54     36%   83 29.85        
Aug 15 01:10 NE 1   Clear   85 54     35%   83 29.85        
Aug 15 01:00 E 1   Clear   85 54     35%   83 29.85        
Aug 15 00:50 ENE 1   Clear   85 54     34%   83 29.85        
Aug 15 00:40 E 1   Clear   85 54     34%   84 29.85        
Aug 15 00:30 NE 2   Clear   86 54     34%   84 29.85        
Aug 15 00:20 NNE 2   Clear   86 54     34%   84 29.85        
Aug 15 00:10 NNE 1   Clear   86 55     34%   85 29.85        
Aug 15 00:00 NE 1   Clear   86 55     34%   85 29.85        
Aug 14 23:50 NE 2   Clear   87 54     33%   85 29.84        
Aug 14 23:40 NNE 1   Clear   87 55     34%   85 29.84        
Aug 14 23:30 N 1   Clear   87 54     33%   85 29.84        
Aug 14 23:20 NE 1   Clear   87 54     33%   85 29.84        
Aug 14 23:10 ENE 1   Clear   87 55     33%   86 29.83        
Aug 14 23:00 NE 1   Clear   88 55     33%   86 29.83        
Aug 14 22:50 NE 3   Clear   88 55     32%   87 29.83        
Aug 14 22:40 N 4   Clear   89 55     31%   87 29.83        
Aug 14 22:30 N 3   Clear   90 55     30%   88 29.83        
Aug 14 22:20 NNE 4   Clear   92 53     27%   89 29.82        
Aug 14 22:10 ENE 2   Clear   92 53     27%   90 29.82        
Aug 14 22:00 NNW 2   Clear   92 52     26%   90 29.82        
Aug 14 21:50 Calm   Clear   92 52     26%   90 29.82        
Aug 14 21:40 N 1   Clear   93 53     26%   90 29.81        
Aug 14 21:30 NNW 3   Clear   93 53     26%   90 29.81        
Aug 14 21:20 N 5   Clear   93 52     25%   91 29.8        
Aug 14 21:10 N 5   Clear   94 51     24%   91 29.8        
Aug 14 21:00 N 4   Clear   95 51     23%   92 29.79        
Aug 14 20:50 WNW 1   Clear   95 50     22%   92 29.79        
Aug 14 20:40 NNW 3   Clear   95 50     22%   92 29.78        
Aug 14 20:30 NNW 4   Clear   95 50     22%   92 29.78        
Aug 14 20:20 NNW 7   Clear   96 51     22%   93 29.78        
Aug 14 20:10 N 7   Clear   97 51     22%   94 29.77        
Aug 14 20:00 NE 5   Clear   97 56     26%   96 29.76        
Aug 14 19:50 ENE 4   Clear   97 57     26%   96 29.76        
Aug 14 19:40 NE 5   Clear   98 54     23%   96 29.76        
Aug 14 19:30 N 4   Clear   98 53     22%   96 29.75        
Aug 14 19:20 NNE 3   Clear   99 53     22%   97 29.75        
Aug 14 19:10 NNE 2   Clear   98 55     24%   97 29.75        
Aug 14 19:00 N 2   Clear   98 57     26%   98 29.75        
Aug 14 18:50 ENE 2   Clear   98 58     26%   98 29.75        
Aug 14 18:40 NE 5   Clear   99 57     25%   98 29.75        
Aug 14 18:30 N 8   Clear   100 56     24%   99 29.75        
Aug 14 18:20 NNW 6   Clear   101 56     23%   100 29.75        
Aug 14 18:10 NNW 5   Clear   101 56     23%   100 29.75        
Aug 14 18:00 N 8   Clear   101 55     22%   99 29.75        
Aug 14 17:50 N 7   Clear   101 55     22%   100 29.75        
Aug 14 17:40 NE 4   Clear   101 56     23%   100 29.75        
Aug 14 17:30 ENE 3   Clear   102 56     22%   100 29.75        
Aug 14 17:20 ENE 5   Clear   101 56     23%   100 29.75        
Aug 14 17:10 ENE 6   Clear   101 56     23%   100 29.75        
Aug 14 17:00 ENE 6   Clear   101 56     23%   100 29.75        
Aug 14 16:50 ENE 6   Clear   101 57     24%   100 29.76        
Aug 14 16:40 ENE 7   Clear   100 58     25%   100 29.76        
Aug 14 16:30 ENE 7   Clear   100 58     25%   100 29.76        
Aug 14 16:20 ENE 6   Clear   101 58     24%   101 29.76        
Aug 14 16:10 E 5   Clear   101 58     25%   100 29.77        
Aug 14 16:00 NE 5   Clear   101 58     25%   101 29.77        
Aug 14 15:50 E 5   Clear   101 58     25%   101 29.77        
Aug 14 15:40 ENE 5   Clear   101 59     25%   101 29.78        
Aug 14 15:30 NE 4   Clear   100 59     26%   100 29.78        
Aug 14 15:20 ENE 5   Clear   101 60     26%   102 29.79        
Aug 14 15:10 WNW 2   Clear   100 59     26%   101 29.79        
Aug 14 15:00 NE 4   Clear   99 61     28%   100 29.79        
Aug 14 14:50 N 3   Clear   99 60     28%   100 29.8        
Aug 14 14:40 NE 7   Clear   98 62     30%   100 29.81        
Aug 14 14:30 ESE 5   Clear   99 60     28%   99 29.81        
Aug 14 14:20 E 5   Clear   98 60     28%   98 29.82        
Aug 14 14:10 E 5   Clear   99 58     26%   98 29.82        
Aug 14 14:00 E 7   Clear   98 57     25%   97 29.82        
Aug 14 13:50 ESE 5   Clear   98 55     24%   97 29.83        
Aug 14 13:40 ENE 5   Clear   98 55     24%   96 29.83        
Aug 14 13:30 ENE 4   Clear   98 55     24%   97 29.84        
Aug 14 13:20 ENE 3   Clear   97 54     24%   96 29.84        
Aug 14 13:10 E 5   Clear   98 54     23%   96 29.84        
Notice The following observation data may not be complete
Aug 14 13:00     Clear            %              
Aug 14 11:00 NE 5   Clear   94 49     22%   91 29.88        
Aug 14 10:50 E 4   Clear   93 48     22%   89 29.88        
Aug 14 10:20 ENE 6   Clear   92 48     22%   89 29.88        
Aug 14 10:10 ENE 6   Clear   91 49     24%   88 29.89        
Aug 14 09:40 NNE 3   Clear   92 50     24%   89 29.88        
Aug 14 09:30 N 2   Clear   91 50     25%   88 29.88        
Aug 14 09:20 N 3   Clear   90 50     26%   87 29.88        
Aug 14 09:10 N 3   Clear   89 50     27%   86 29.88        
Aug 14 09:00 N 3   Clear   88 50     27%   85 29.88        
Aug 14 08:50 N 3   Clear   87 51     29%   84 29.88        
Aug 14 08:20 N 4   Clear   87 50     28%   85 29.87        
Aug 14 08:10 NNE 2   Clear   88 50     27%   85 29.87        
Aug 14 08:00 NE 1   Clear   89 49     26%   86 29.87        
Aug 14 07:50 Calm   Clear   88 50     27%   85 29.87        
Aug 14 07:40 SSW 1   Clear   87 50     28%   84 29.87        
Aug 14 07:30 Calm   Clear   85 49     29%   83 29.86        
Aug 14 07:00 S 1   Clear   80 48     33%   79 29.86        
Aug 14 06:50 N 1   Clear   79 48     34%   78 29.86        
Aug 14 06:40 Calm   Clear   79 48     34%   78 29.86        
Aug 14 06:30 Calm   Clear   79 48     34%   78 29.85        
Aug 14 06:20 Calm   Clear   79 48     34%   78 29.85        
Aug 14 06:10 Calm   Clear   79 48     34%   78 29.85        
Aug 14 04:50 Calm   Clear   79 49     35%   79 29.84        
Aug 14 04:40 Calm   Clear   80 49     35%   79 29.84        
Aug 14 04:30 Calm   Clear   79 50     36%   78 29.84        
Aug 14 04:20 NE 2   Clear   80 50     36%   79 29.84        
Aug 14 04:10 NE 3   Clear   80 49     34%   80 29.84        
Aug 14 04:00 ENE 1   Clear   80 49     34%   80 29.84        
Aug 14 03:50 Calm   Clear   80 49     34%   80 29.84        
Aug 14 03:40 Calm   Clear   80 49     34%   80 29.84        
Aug 14 03:30 Calm   Clear   80 50     35%   80 29.83        
Aug 14 03:20 Calm   Clear   80 50     35%   80 29.83        
Aug 14 03:10 Calm   Clear   80 50     35%   80 29.84        
Aug 14 03:00 Calm   Clear   80 50     35%   80 29.84        
Aug 14 02:50 Calm   Clear   81 50     34%   80 29.84        
Aug 14 02:40 NE 1   Clear   81 50     34%   80 29.84        
Aug 14 02:30 NE 1   Clear   81 50     34%   80 29.84        
Aug 14 02:20 NE 1   Clear   81 50     34%   80 29.84        
Aug 14 02:10 NNE 2   Clear   81 50     34%   80 29.84        
Aug 14 02:00 NE 2   Clear   82 50     33%   81 29.84        
Aug 14 01:50 NE 2   Clear   83 50     32%   81 29.84        
Aug 14 01:40 Calm   Clear   83 50     32%   82 29.84        
Aug 14 01:30 Calm   Clear   83 50     32%   81 29.84        
Aug 14 01:20 Calm   Clear   83 50     32%   81 29.84        
Aug 14 01:10 Calm   Clear   83 50     32%   82 29.85        
Aug 14 01:00 Calm   Clear   83 50     32%   82 29.85        
Aug 14 00:50 Calm   Clear   83 51     32%   82 29.85        
Aug 14 00:40 E 1   Clear   84 51     32%   82 29.85        
Aug 14 00:30 ENE 1   Clear   84 50     31%   82 29.85        
Aug 14 00:20 NNE 2   Clear   85 51     31%   83 29.85        
Aug 14 00:10 NNE 3   Clear   85 49     29%   83 29.85        
Aug 14 00:00 NNE 1   Clear   86 49     28%   83 29.85        
Aug 13 23:50 Calm   Clear   86 49     28%   83 29.85        
Aug 13 23:40 NE 1   Clear   86 49     28%   84 29.85        
Aug 13 23:30 NNE 1   Clear   87 49     27%   84 29.85        
Aug 13 22:40 ESE 2   Clear   88 48     25%   85 29.85        
Aug 13 22:30 NNE 2   Clear   89 48     25%   86 29.85        
Aug 13 22:20 NE 3   Clear   89 48     24%   86 29.84        
Aug 13 22:10 NNW 3   Clear   90 48     24%   87 29.84        
Aug 13 22:00 N 4   Clear   91 49     24%   88 29.84        
Aug 13 21:50 NNW 6   Clear   92 50     24%   89 29.84        
Aug 13 21:40 WNW 6   Clear   94 50     23%   91 29.83        
Aug 13 21:30 SSW 6   Clear   94 51     23%   92 29.83        
Aug 13 21:20 SW 6   Clear   95 51     23%   92 29.83        
Aug 13 21:10 S 7   Clear   95 51     23%   92 29.82        
Aug 13 20:40 S 4   Clear   95 51     23%   92 29.82        
Aug 13 20:30 NNE 1   Clear   95 50     22%   92 29.82        
Aug 13 20:20 NNW 1   Clear   96 49     21%   92 29.82        
Aug 13 20:10 ENE 1   Clear   96 50     21%   93 29.81        
Aug 13 20:00 NNW 4   Clear   96 49     20%   93 29.81        
Aug 13 19:00 ENE 4   Clear   98 57     26%   97 29.79        
Aug 13 18:50 E 4   Clear   98 57     26%   97 29.79        
Aug 13 18:40 ENE 6   Clear   98 57     25%   97 29.79        
Aug 13 18:30 ENE 5   Clear   99 57     25%   98 29.79        
Aug 13 18:20 ENE 5   Clear   99 57     25%   98 29.79        
Aug 13 18:10 E 6   Clear   99 57     25%   99 29.8        
Aug 13 18:00 NE 7   Clear   100 57     24%   99 29.8        
Aug 13 17:50 ENE 5   Clear   100 57     24%   100 29.8        
Aug 13 17:20 ENE 6   Clear   100 58     25%   100 29.81        
Aug 13 17:10 ENE 7   Clear   100 57     24%   99 29.81        
Aug 13 16:40 ENE 5   Clear   100 57     24%   100 29.81        
Aug 13 16:30 ENE 3   Clear   100 57     24%   100 29.81        
Aug 13 16:00 ENE 2   Clear   100 57     24%   99 29.82        
Aug 13 15:50 ESE 3   Clear   99 57     25%   98 29.83        
Notice The following observation data may not be complete
Aug 13 15:40     Clear            %              
Notice The following observation data may not be complete
Aug 13 15:30     Clear            %              
Aug 13 15:20 ENE 7   Clear   99 57     25%   99 29.84        
Aug 13 15:10 ENE 8   Clear   100 58     25%   99 29.85        
Aug 13 15:00 ENE 8   Clear   99 57     25%   99 29.85        
Aug 13 14:50 E 7   Clear   98 58     26%   98 29.86        
Notice The following observation data may not be complete
Aug 13 14:40     Clear            %              
Notice The following observation data may not be complete
Aug 13 14:30     Clear            %              
Aug 13 14:20 ENE 6   Clear   100 54     22%   98 29.87        
Aug 13 14:10 ENE 5   Clear   100 54     22%   98 29.88        
Aug 13 14:00 E 6   Clear   100 53     21%   98 29.88        
Aug 13 13:50 ENE 6   Clear   100 53     21%   98 29.88        
Aug 13 13:20 E 6   Clear   100 53     21%   97 29.89        
Aug 13 13:10 N 1   Clear   99 52     21%   96 29.9        
Aug 13 13:00 ENE 4   Clear   98 53     22%   96 29.9        
Aug 13 12:50 ENE 3   Clear   98 53     22%   96 29.91        
Aug 13 12:40 ENE 4   Clear   98 52     21%   96 29.91        
Aug 13 12:30 E 5   Clear   98 52     21%   96 29.91        
Aug 13 12:20 ENE 5   Clear   98 52     22%   95 29.91        
Aug 13 12:10 E 3   Clear   98 53     22%   96 29.92        
Aug 13 12:00 E 4   Clear   97 53     23%   94 29.92        
Aug 13 11:50 ENE 4   Clear   96 53     23%   94 29.92        
Aug 13 11:40 NE 5   Clear   97 53     23%   94 29.92        
Aug 13 11:30 E 5   Clear   96 53     24%   94 29.93        
Aug 13 11:20 ENE 5   Clear   96 53     24%   94 29.93        
Aug 13 11:10 N 3   Clear   96 54     25%   93 29.93        
Aug 13 11:00 NNW 4   Clear   94 54     26%   92 29.93        
Aug 13 10:50 N 5   Clear   94 54     26%   91 29.93        
Aug 13 10:40 N 5   Clear   93 54     27%   91 29.93        
Aug 13 10:30 NNW 5   Clear   92 55     28%   90 29.93        
Aug 13 10:20 N 5   Clear   92 54     28%   90 29.93        
Aug 13 10:10 N 6   Clear   92 54     28%   90 29.93        
Aug 13 10:00 NNE 5   Clear   92 53     27%   90 29.93        
Notice The following observation data may not be complete
Aug 13 09:50     Clear            %              
Aug 13 09:40 ENE 3   Clear   92 53     27%   89 29.93        
Aug 13 09:30 N 1   Clear   92 53     27%   90 29.94        
Aug 13 09:20 N 1   Clear   92 52     26%   89 29.94        
Aug 13 09:10 Calm   Clear   92 53     27%   89 29.94        
Aug 13 09:00 ENE 1   Clear   89 53     29%   87 29.94        
Aug 13 08:50 NNE 1   Clear   89 53     30%   87 29.94        
Aug 13 08:40 Calm   Clear   87 53     31%   85 29.94        
Aug 13 08:30 N 1   Clear   87 53     32%   85 29.95        
Aug 13 08:20 N 3   Clear   85 53     33%   83 29.95        
Aug 13 08:10 N 2   Clear   86 53     33%   84 29.95        
Aug 13 08:00 NE 2   Clear   85 53     34%   83 29.95        
Aug 13 07:50 NE 2   Clear   85 53     34%   83 29.95        
Aug 13 07:40 ENE 1   Clear   84 54     36%   83 29.95        
Aug 13 07:30 NE 2   Clear   83 54     37%   82 29.95        
Aug 13 07:20 NE 2   Clear   82 55     39%   81 29.95        
Aug 13 07:10 NNE 4   Clear   83 54     36%   82 29.94        
Aug 13 07:00 ENE 1   Clear   83 53     36%   82 29.94        
Aug 13 06:10 NNE 1   Clear   83 56     40%   82 29.94        
Aug 13 06:00 NNE 2   Clear   84 57     41%   83 29.94        
Aug 13 04:40 ENE 6   Clear   84 55     37%   83 29.91        
Aug 13 04:30 NE 2   Clear   82 54     39%   81 29.91        
Aug 13 04:20 Calm   Clear   81 54     40%   81 29.91        
Aug 13 04:10 Calm   Clear   81 54     40%   81 29.9        
Aug 13 04:00 Calm   Clear   81 55     40%   81 29.9        
Aug 13 01:00 ENE 1   Clear   85 54     35%   83 29.89        
Aug 13 00:40 ENE 3   Clear   86 54     34%   84 29.89        
Aug 13 00:30 NE 3   Clear   87 54     33%   85 29.89        
Aug 12 23:40 NE 1   Clear   88 55     32%   86 29.88        
Aug 12 23:30 NNE 2   Clear   88 55     32%   86 29.88        
Aug 12 23:20 NNE 2   Clear   89 54     31%   87 29.88        
Aug 12 23:10 N 2   Clear   89 55     31%   87 29.88        
Aug 12 23:00 NNE 3   Clear   89 55     31%   87 29.88        
Aug 12 22:50 NE 3   Clear   89 55     31%   87 29.88        
Aug 12 22:20 WNW 4   Clear   91 55     30%   89 29.87        
Aug 12 22:10 SW 10   Clear   93 56     29%   91 29.87        
Aug 12 22:00 SW 9   Clear   93 56     29%   91 29.87        
Aug 12 21:50 SW 16   Clear   92 56     29%   91 29.87        
Aug 12 21:40 SW 13   Clear   93 56     29%   91 29.87        
Aug 12 21:30 S 7   Clear   93 56     29%   92 29.86        
Aug 12 21:20 SSW 9   Clear   94 55     28%   92 29.86        
Aug 12 21:10 S 8   Clear   94 56     28%   92 29.86        
Aug 12 20:50 SSW 11   Clear   93 56     29%   92 29.85        
Aug 12 20:20 S 11   Clear   93 58     31%   92 29.84        
Aug 12 20:10 S 11   Clear   94 58     30%   93 29.84        
Aug 12 19:00 SSW 13   Clear   98 58     27%   98 29.82        
Aug 12 18:50 SSW 11   Clear   99 58     26%   99 29.82        
Aug 12 18:20 NNW 4   Clear   101 55     22%   100 29.82        
Aug 12 18:10 NNW 5   Clear   101 55     22%   100 29.82        
Aug 12 18:00 N 3   Clear   102 55     21%   101 29.82        
Notice The following observation data may not be complete
Aug 12 17:50     Clear            %              
Aug 12 17:40 WNW 3   Clear   102 54     21%   100 29.82        
Aug 12 17:30 N 4   Clear   102 54     21%   100 29.82        
Aug 12 17:20 SE 3   Clear   101 54     21%   100 29.83        
Aug 12 17:10 S 6   Clear   101 54     21%   99 29.83        
Aug 12 16:50 SSW 8   Clear   100 54     22%   98 29.84        
Aug 12 16:40 S 7   Clear   99 54     22%   97 29.84        
Aug 12 16:30 S 7   Clear   99 55     23%   97 29.85        
Aug 12 16:20 S 7   Clear   99 56     24%   98 29.85        
Aug 12 16:10 S 8   Clear   99 56     24%   98 29.85        
Aug 12 16:00 W 4   Clear   99 57     25%   99 29.86        
Aug 12 15:50 ENE 3   Clear   99 58     26%   99 29.86        
Aug 12 15:00 N 6   Clear   101 59     25%   101 29.88        
Aug 12 14:50 NNW 6   Clear   101 58     25%   101 29.89        
Aug 12 14:40 N 6   Clear   101 58     25%   101 29.89        
Aug 12 14:30 N 6   Clear   101 58     25%   100 29.89        
Aug 12 14:20 NNW 5   Clear   101 58     25%   101 29.9        
Aug 12 14:10 NW 3   Clear   101 58     25%   100 29.9        
Aug 12 13:20 NW 5   Clear   98 59     28%   98 29.93        
Aug 12 13:10 N 5   Clear   98 60     28%   99 29.93        
Aug 12 12:50 N 4   Clear   97 58     28%   96 29.94        
Aug 12 12:40 NNW 6   Clear   97 59     28%   97 29.95        
Aug 12 12:30 NW 2   Clear   96 57     27%   95 29.95        
Aug 12 12:20 NNE 7   Clear   96 57     27%   95 29.95        
Aug 12 12:10 NW 3   Clear   96 57     27%   95 29.96        
Aug 12 11:50 NNW 3   Clear   95 57     28%   94 29.96        
Aug 12 11:40 N 4   Clear   94 58     30%   93 29.96        
Aug 12 11:30 NNE 3   Clear   94 58     31%   93 29.97        
Aug 12 11:20 NNE 6   Clear   93 60     33%   93 29.97        
Aug 12 11:00 NNE 5   Clear   92 60     34%   92 29.98        
Aug 12 10:50 NE 3   Clear   92 60     35%   92 29.98        
Aug 12 10:40 N 4   Clear   92 61     36%   91 29.98        
Aug 12 10:30 N 3   Clear   91 61     37%   91 29.99        
Aug 12 10:20 N 5   Clear   90 61     38%   90 29.99        
Aug 12 10:10 N 4   Clear   89 60     38%   89 29.99        
Aug 12 10:00 NNE 7   Clear   89 61     39%   89 29.99        
Aug 12 09:30 N 6   Clear   88 59     38%   87 29.99        
Aug 12 09:20 NE 4   Clear   87 59     39%   87 29.99        
Aug 12 09:10 NNE 4   Clear   87 59     39%   86 29.99        
Aug 12 09:00 NNE 5   Clear   87 59     40%   86 29.99        
Aug 12 08:40 NE 3   Clear   85 62     45%   86 29.99        
Aug 12 08:30 N 2   Clear   86 61     43%   86 29.99        
Aug 12 07:40 N 5   Clear   86 60     41%   86 29.97        
Aug 12 07:30 E 6   Clear   87 59     40%   86 29.96        
Aug 12 06:50 E 7   Clear   84 60     44%   84 29.95        
Aug 12 06:00 NNE 1   Clear   82 61     48%   83 29.91        
Aug 12 05:40 ENE 1   Clear   82 61     48%   83 29.9        
Aug 12 05:30 SSW 2   Clear   82 61     48%   83 29.89        
Aug 12 05:20 WSW 1   Clear   82 61     48%   83 29.89        
Aug 12 05:10 ESE 1   Clear   82 61     49%   83 29.89        
Aug 12 05:00 E 3   Clear   82 61     49%   83 29.9        
Aug 12 04:50 NNE 5   Clear   83 61     47%   83 29.9        
Aug 12 04:40 N 3   Clear   84 60     45%   84 29.9        
Aug 12 04:30 NE 2   Clear   85 59     42%   85 29.9        
Aug 12 03:30 S 7   Clear   90 52     27%   88 29.91        
Aug 12 02:40 S 7   Clear   86 59     40%   86 29.92        
Aug 12 02:30 SSW 3   Clear   85 60     44%   85 29.92        
Aug 12 02:20 S 3   Clear   84 61     45%   84 29.92        
Aug 12 02:10 N 4   Clear   84 61     45%   85 29.92        
Aug 12 01:00 SW 3   Clear   88 58     37%   87 29.9        
Aug 12 00:50 S 1   Clear   87 58     38%   86 29.9        
Aug 12 00:40 Calm   Clear   87 58     38%   86 29.91        
Aug 12 00:30 Calm   Clear   87 58     38%   86 29.91        
May 15 09:50 N 5   Clear   76 44     31%   75 29.9        
May 15 09:20 N 3   Clear   75 43     32%   74 29.9        
May 15 05:00 Calm   Clear   63 46     55%     29.82        
May 14 23:50 NE 3   Clear   70 45     40%     29.82        
May 14 18:50 N 5   Clear   81 42     25%   80 29.77        
May 14 18:00 NNW 8   Clear   85 38     19%   82 29.77        
May 14 16:20 N 4   Clear   86        %     29.79        
May 14 15:50 NNW 6   Clear   85 27     12%   82 29.79        
May 14 14:30 NE 5   Clear   85 28     13%   81 29.82        
May 14 10:40 N 6   Clear   77 41     27%   76 29.87        
May 14 09:30 N 4   Clear   75 39     27%   73 29.86        
May 14 09:10 N 4   Clear   73 40     30%   72 29.86        
May 14 09:00 N 4   Clear   72 41     33%   71 29.86        
May 14 06:30 NE 3   Clear   59 43     56%     29.82        
May 14 03:30 NNE 3   Clear   62 46     56%     29.81        
May 14 00:40 Calm   Clear   65 44     47%     29.82        
May 13 18:30 NNW 7   Clear   78 40     26%   77 29.8        
May 13 16:50 NNW 6   Clear   81 39     23%   79 29.81        
May 13 16:00 NNW 6   Clear   79 40     25%   77 29.82        
May 13 12:40 NE 7   Clear   77 40     27%   75          
May 13 07:40 NNW 3   Clear   65 43     44%     29.86        
Notice The following observation data may not be complete
May 13 07:20     Clear            %              
May 13 07:10 NNE 3   Clear   66 43     43%     29.85        
May 13 03:00 Calm   Clear   61 42     50%     29.8        
May 13 02:10 NNE 3   Clear   63 40     44%     29.79        
May 12 16:00 NNW 7   Clear   79 40     25%   78 29.76        
May 12 12:10 NNW 7   Clear   75 41     29%   74 29.81        
May 12 11:40 N 5   Clear   74 42     31%   73 29.82        
May 12 00:40     Clear   66 34     31%     29.65        
May 11 23:10 W 7   Clear   65 41     40%     29.65        
May 11 22:30 WSW 12   Clear   67 36     32%     29.66        
May 11 22:00     Clear   66 38     36%              
May 11 18:00     Clear   81 37     21%   79 29.59        
Notice The following observation data may not be complete
May 11 11:20     Clear            %